This is the latest recevied weather packets stored in our database for station/object KE8RXN. If no packets are shown the sender has not sent any weather packets the latest 10 day(s).
| Time | Temp. | Humidity | Pressure | Rain* | Wind** | Luminosity | Snow |
|---|---|---|---|---|---|---|---|
| 1777077049 | 17.22° C | 82% | 1010.7 hPa | 0 mm | - | 2 W/m² | - |
| 1777076745 | 17.22° C | 82% | 1010.8 hPa | 0 mm | - | 4 W/m² | - |
| 1777076441 | 17.22° C | 81% | 1010.7 hPa | 0 mm | - | 6 W/m² | - |
| 1777076136 | 17.78° C | 81% | 1010.8 hPa | 0 mm | - | 8 W/m² | - |
| 1777075833 | 17.78° C | 80% | 1010.7 hPa | 0 mm | - | 11 W/m² | - |
| 1777075527 | 17.78° C | 80% | 1010.5 hPa | 0 mm | - | 15 W/m² | - |
| 1777075225 | 17.78° C | 79% | 1010.7 hPa | 0 mm | - | 18 W/m² | - |
| 1777074921 | 17.78° C | 78% | 1010.6 hPa | 0 mm | - | 20 W/m² | - |
| 1777074616 | 18.33° C | 78% | 1010.6 hPa | 0 mm | - | 21 W/m² | - |
| 1777074311 | 18.33° C | 78% | 1010.4 hPa | 0 mm | - | 21 W/m² | - |
| 1777074009 | 18.33° C | 79% | 1010.4 hPa | 0 mm | - | 23 W/m² | - |
| 1777073704 | 18.33° C | 79% | 1010.5 hPa | 0 mm | - | 21 W/m² | - |
| 1777073400 | 18.33° C | 78% | 1010.5 hPa | 0 mm | - | 26 W/m² | - |
| 1777073096 | 18.33° C | 79% | 1010.5 hPa | 0 mm | - | 28 W/m² | - |
| 1777072792 | 18.33° C | 79% | 1010.5 hPa | 0 mm | - | 43 W/m² | - |
| 1777072490 | 18.33° C | 80% | 1010.4 hPa | 0 mm | - | 62 W/m² | - |
| 1777072185 | 18.33° C | 79% | 1010.2 hPa | 0 mm | - | 54 W/m² | - |
| 1777071881 | 18.33° C | 80% | 1010.2 hPa | 0 mm | - | 64 W/m² | - |
| 1777071578 | 18.33° C | 80% | 1010.2 hPa | 0 mm | - | 55 W/m² | - |
| 1777071273 | 18.33° C | 79% | 1010.2 hPa | 0 mm | - | 55 W/m² | - |
| 1777070968 | 18.33° C | 79% | 1010.1 hPa | 0 mm | - | 117 W/m² | - |
| 1777070666 | 18.33° C | 79% | 1010.2 hPa | 0 mm | - | 72 W/m² | - |
| 1777070361 | 17.78° C | 79% | 1010.2 hPa | 0 mm | - | 88 W/m² | - |
| 1777070061 | 18.33° C | 79% | 1010 hPa | 0 mm | - | 75 W/m² | - |
| 1777069755 | 18.33° C | 79% | 1010.2 hPa | 0 mm | - | 75 W/m² | - |
* Rain latest hour (hover to see other rain measurements)
** Current wind speed in m/s (hover to see current wind gust speed)